TimeCST,TemperatureF,Dew PointF,Humidity,Sea Level PressureIn,VisibilityMPH,Wind Direction,Wind SpeedMPH,Gust SpeedMPH,PrecipitationIn,Events,Conditions,WindDirDegrees,DateUTC
12:01 AM,-0.4,-5.8,78,30.14,10.0,SSW,2.3,-,N/A,,Overcast,210,2013-01-23 06:01:00
12:21 AM,-0.4,-5.8,78,30.13,7.0,Calm,Calm,-,N/A,,Overcast,190,2013-01-23 06:21:00
12:41 AM,-0.4,-5.8,78,30.12,7.0,SSW,3.5,-,N/A,,Overcast,200,2013-01-23 06:41:00
1:21 AM,-0.4,-5.8,78,30.11,10.0,SSW,2.3,-,N/A,,Overcast,200,2013-01-23 07:21:00
2:01 AM,-0.4,-4.0,85,30.10,10.0,SSW,3.5,-,N/A,,Overcast,210,2013-01-23 08:01:00
7:41 AM,1.4,-0.4,92,30.10,3.0,West,5.8,-,N/A,,Overcast,280,2013-01-23 13:41:00
8:41 AM,1.4,-2.2,85,30.12,4.0,WNW,16.1,-,N/A,,Mostly Cloudy,300,2013-01-23 14:41:00
9:21 AM,-0.4,-5.8,78,30.15,10.0,NW,15.0,21.9,N/A,,Mostly Cloudy,310,2013-01-23 15:21:00
9:59 AM,-0.4,-7.6,72,30.17,10.0,NW,19.6,23.0,N/A,,Clear,320,2013-01-23 15:59:00
10:15 AM,-0.4,-9.4,66,30.19,10.0,NNW,17.3,23.0,N/A,,Clear,330,2013-01-23 16:15:00
10:25 AM,-0.4,-9.4,66,30.20,7.0,NW,17.3,25.3,N/A,,Clear,320,2013-01-23 16:25:00
10:41 AM,-0.4,-9.4,66,30.21,4.0,NNW,18.4,28.8,N/A,,Clear,330,2013-01-23 16:41:00
11:05 AM,-0.4,-11.2,60,30.22,10.0,NW,17.3,24.2,N/A,,Clear,320,2013-01-23 17:05:00
11:15 AM,-0.4,-11.2,60,30.22,10.0,NW,18.4,23.0,N/A,,Clear,320,2013-01-23 17:15:00
11:34 AM,-2.2,-11.2,66,-9999,5.0,NW,24.2,28.8,N/A,,Haze,320,2013-01-23 17:34:00
11:53 AM,-2.2,-11.2,66,30.24,7.0,NW,18.4,26.5,N/A,,Clear,310,2013-01-23 17:53:00
12:15 PM,-2.2,-13.0,60,30.25,10.0,NW,17.3,25.3,N/A,,Clear,320,2013-01-23 18:15:00
12:35 PM,-2.2,-13.0,60,30.25,10.0,NW,21.9,27.6,N/A,,Clear,320,2013-01-23 18:35:00
12:53 PM,-4.0,-14.8,60,30.25,7.0,NNW,24.2,29.9,N/A,,Clear,330,2013-01-23 18:53:00
1:15 PM,-4.0,-14.8,60,30.27,7.0,NNW,20.7,28.8,N/A,,Clear,330,2013-01-23 19:15:00
1:34 PM,-4.0,-16.6,55,30.28,10.0,NW,17.3,26.5,N/A,,Clear,320,2013-01-23 19:34:00
1:53 PM,-4.0,-16.6,55,30.28,10.0,NNW,17.3,25.3,N/A,,Clear,330,2013-01-23 19:53:00
2:15 PM,-4.0,-16.6,55,30.30,10.0,NNW,19.6,26.5,N/A,,Clear,340,2013-01-23 20:15:00
2:35 PM,-4.0,-16.6,55,30.32,10.0,NNW,17.3,21.9,N/A,,Clear,330,2013-01-23 20:35:00
2:53 PM,-5.8,-18.4,55,30.33,10.0,NNW,16.1,19.6,N/A,,Clear,330,2013-01-23 20:53:00
3:15 PM,-5.8,-18.4,55,30.34,10.0,NNW,17.3,23.0,N/A,,Clear,330,2013-01-23 21:15:00
3:35 PM,-5.8,-18.4,55,30.35,10.0,NW,15.0,25.3,N/A,,Clear,320,2013-01-23 21:35:00
3:53 PM,-5.8,-18.4,55,30.37,10.0,NNW,12.7,20.7,N/A,,Clear,330,2013-01-23 21:53:00
4:15 PM,-7.6,-18.4,59,30.37,10.0,NW,11.5,-,N/A,,Clear,320,2013-01-23 22:15:00
4:34 PM,-7.6,-20.2,54,30.39,10.0,NW,13.8,18.4,N/A,,Clear,320,2013-01-23 22:34:00
4:53 PM,-7.6,-18.4,59,30.42,10.0,NW,12.7,-,N/A,,Clear,310,2013-01-23 22:53:00
5:15 PM,-9.4,-20.2,59,30.43,10.0,NW,10.4,-,N/A,,Clear,310,2013-01-23 23:15:00
5:34 PM,-9.4,-20.2,59,30.44,10.0,WNW,10.4,-,N/A,,Clear,300,2013-01-23 23:34:00
5:39 PM,-11.2,-20.2,64,30.45,10.0,WNW,10.4,-,N/A,,Clear,300,2013-01-23 23:39:00
6:01 PM,-11.2,-20.2,64,30.45,10.0,NW,9.2,-,N/A,,Clear,320,2013-01-24 00:01:00
6:41 PM,-11.2,-20.2,64,30.47,10.0,NNW,5.8,-,N/A,,Clear,330,2013-01-24 00:41:00
7:01 PM,-13.0,-22.0,64,30.48,10.0,NW,5.8,-,N/A,,Clear,320,2013-01-24 01:01:00
7:21 PM,-14.8,-23.8,64,30.49,10.0,NNW,5.8,-,N/A,,Clear,330,2013-01-24 01:21:00
8:21 PM,-14.8,-23.8,64,30.52,10.0,North,6.9,-,N/A,,Clear,350,2013-01-24 02:21:00
10:01 PM,-16.6,-23.8,70,30.54,10.0,North,8.1,-,N/A,,Clear,360,2013-01-24 04:01:00
11:01 PM,-16.6,-23.8,70,30.57,10.0,North,4.6,-,N/A,,Clear,0,2013-01-24 05:01:00
11:21 PM,-16.6,-23.8,70,30.56,10.0,North,5.8,-,N/A,,Clear,10,2013-01-24 05:21:00
11:41 PM,-16.6,-23.8,70,30.56,10.0,North,4.6,-,N/A,,Clear,10,2013-01-24 05:41:00